Location: Boiro
(42.6475°N, 8.8834°W)
Time: 21:54:21
(UTC+01:00)

Vanguard 1 - Pass Details

Date: 06 December 2021
Orbit: 652 x 3830 km, 34.2° (Epoch: 19 January)

Event Time Altitude Azimuth Distance (km) Brightness Sun altitude
Rises 02:04:38 0° 248° (WSW) 7,243 - -68.3°
Reaches altitude 10° 02:09:07 10° 246° (WSW) 6,486 - -68.0°
Maximum altitude 02:31:35 66° 171° (S) 4,005 - -65.7°
Exits shadow 02:42:41 37° 106° (ESE) 4,580 13.3 -64.4°
Drops below altitude 10° 02:51:35 10° 95° (E) 5,881 14.2 -63.2°
Sets 02:55:23 0° 93° (E) 6,572 14.6 -62.7°
